Time,TemperatureF,DewpointF,PressureIn,WindDirection,WindDirectionDegrees,WindSpeedMPH,WindSpeedGustMPH,Humidity,HourlyPrecipIn,Conditions,Clouds,dailyrainin,SoftwareType,DateUTC
2013-02-01 00:03:00,31.0,-99.9,29.76,NW,307,25.0,33.0,-999,-99.99,,,-99.99,,2013-02-01 05:03:00,
2013-02-01 00:12:00,-999.0,-99.9,-100.00,NW,304,25.0,28.0,-999,-99.99,,,-99.99,,2013-02-01 05:12:00,
2013-02-01 00:23:00,-999.0,-99.9,-100.00,WNW,299,15.0,28.0,-999,-99.99,,,-99.99,,2013-02-01 05:23:00,
2013-02-01 00:32:00,31.0,-99.9,29.77,WNW,303,22.0,28.0,-999,-99.99,,,-99.99,,2013-02-01 05:32:00,
2013-02-01 00:42:00,-999.0,-99.9,-100.00,WNW,296,20.0,28.0,-999,-99.99,,,-99.99,,2013-02-01 05:42:00,
2013-02-01 00:52:00,-999.0,-99.9,-100.00,WNW,293,24.0,29.0,-999,-99.99,,,-99.99,,2013-02-01 05:52:00,
2013-02-01 01:02:00,31.0,-99.9,29.78,WNW,292,21.0,29.0,-999,-99.99,,,-99.99,,2013-02-01 06:02:00,
2013-02-01 01:12:00,-999.0,-99.9,-100.00,WNW,293,23.0,28.0,-999,-99.99,,,-99.99,,2013-02-01 06:12:00,
2013-02-01 01:22:00,-999.0,-99.9,-100.00,WNW,287,22.0,28.0,-999,-99.99,,,-99.99,,2013-02-01 06:22:00,
2013-02-01 01:32:00,31.0,-99.9,29.78,West,280,21.0,30.0,-999,-99.99,,,-99.99,,2013-02-01 06:32:00,
2013-02-01 01:42:00,-999.0,-99.9,-100.00,WNW,296,21.0,26.0,-999,-99.99,,,-99.99,,2013-02-01 06:42:00,
2013-02-01 01:52:00,-999.0,-99.9,-100.00,WNW,291,19.0,28.0,-999,-99.99,,,-99.99,,2013-02-01 06:52:00,
2013-02-01 02:02:00,31.0,-99.9,29.79,WNW,292,21.0,28.0,-999,-99.99,,,-99.99,,2013-02-01 07:02:00,
2013-02-01 02:12:00,-999.0,-99.9,-100.00,WNW,286,20.0,27.0,-999,-99.99,,,-99.99,,2013-02-01 07:12:00,
2013-02-01 02:22:00,-999.0,-99.9,-100.00,WNW,294,20.0,28.0,-999,-99.99,,,-99.99,,2013-02-01 07:22:00,
2013-02-01 02:32:00,31.0,-99.9,29.80,WNW,290,22.0,28.0,-999,-99.99,,,-99.99,,2013-02-01 07:32:00,
2013-02-01 02:42:00,-999.0,-99.9,-100.00,WNW,282,21.0,28.0,-999,-99.99,,,-99.99,,2013-02-01 07:42:00,
2013-02-01 02:52:00,-999.0,-99.9,-100.00,WNW,283,19.0,25.0,-999,-99.99,,,-99.99,,2013-02-01 07:52:00,
2013-02-01 03:02:00,-999.0,-99.9,-100.00,WNW,286,18.0,24.0,-999,-99.99,,,-99.99,,2013-02-01 08:02:00,
2013-02-01 03:11:00,-999.0,-99.9,-100.00,West,271,17.0,25.0,-999,-99.99,,,-99.99,,2013-02-01 08:11:00,
2013-02-01 03:22:00,-999.0,-99.9,-100.00,WNW,283,19.0,24.0,-999,-99.99,,,-99.99,,2013-02-01 08:22:00,
2013-02-01 03:32:00,31.0,-99.9,29.80,West,270,14.0,18.0,-999,-99.99,,,-99.99,,2013-02-01 08:32:00,
2013-02-01 03:42:00,-999.0,-99.9,-100.00,West,260,14.0,21.0,-999,-99.99,,,-99.99,,2013-02-01 08:42:00,
2013-02-01 03:52:00,-999.0,-99.9,-100.00,WNW,283,13.0,17.0,-999,-99.99,,,-99.99,,2013-02-01 08:52:00,
2013-02-01 04:02:00,31.0,-99.9,29.78,West,267,13.0,24.0,-999,-99.99,,,-99.99,,2013-02-01 09:02:00,
2013-02-01 04:11:00,-999.0,-99.9,-100.00,West,260,15.0,23.0,-999,-99.99,,,-99.99,,2013-02-01 09:11:00,
2013-02-01 04:22:00,-999.0,-99.9,-100.00,West,265,19.0,22.0,-999,-99.99,,,-99.99,,2013-02-01 09:22:00,
2013-02-01 04:32:00,31.0,-99.9,29.78,West,262,17.0,22.0,-999,-99.99,,,-99.99,,2013-02-01 09:32:00,
2013-02-01 04:42:00,-999.0,-99.9,-100.00,West,268,19.0,24.0,-999,-99.99,,,-99.99,,2013-02-01 09:42:00,
2013-02-01 04:52:00,-999.0,-99.9,-100.00,West,260,15.0,20.0,-999,-99.99,,,-99.99,,2013-02-01 09:52:00,
2013-02-01 05:01:00,31.0,-99.9,29.78,West,266,18.0,23.0,-999,-99.99,,,-99.99,,2013-02-01 10:01:00,
2013-02-01 05:11:00,-999.0,-99.9,-100.00,WSW,258,16.0,23.0,-999,-99.99,,,-99.99,,2013-02-01 10:11:00,
2013-02-01 05:22:00,-999.0,-99.9,-100.00,West,260,18.0,24.0,-999,-99.99,,,-99.99,,2013-02-01 10:22:00,
2013-02-01 05:32:00,30.0,-99.9,29.79,West,264,21.0,25.0,-999,-99.99,,,-99.99,,2013-02-01 10:32:00,
2013-02-01 05:43:00,-999.0,-99.9,-100.00,West,267,17.0,27.0,-999,-99.99,,,-99.99,,2013-02-01 10:43:00,
2013-02-01 05:53:00,-999.0,-99.9,-100.00,West,269,18.0,24.0,-999,-99.99,,,-99.99,,2013-02-01 10:53:00,
2013-02-01 06:02:00,31.0,-99.9,29.80,West,266,21.0,27.0,-999,-99.99,,,-99.99,,2013-02-01 11:02:00,
2013-02-01 06:12:00,-999.0,-99.9,-100.00,West,277,20.0,25.0,-999,-99.99,,,-99.99,,2013-02-01 11:12:00,
2013-02-01 06:22:00,-999.0,-99.9,-100.00,West,270,20.0,30.0,-999,-99.99,,,-99.99,,2013-02-01 11:22:00,
2013-02-01 06:32:00,-999.0,-99.9,-100.00,West,265,19.0,25.0,-999,-99.99,,,-99.99,,2013-02-01 11:32:00,
2013-02-01 06:42:00,-999.0,-99.9,-100.00,West,269,18.0,26.0,-999,-99.99,,,-99.99,,2013-02-01 11:42:00,
2013-02-01 06:53:00,-999.0,-99.9,-100.00,West,269,22.0,29.0,-999,-99.99,,,-99.99,,2013-02-01 11:53:00,
2013-02-01 07:03:00,31.0,-99.9,29.82,West,265,14.0,24.0,-999,-99.99,,,-99.99,,2013-02-01 12:03:00,
2013-02-01 07:12:00,-999.0,-99.9,-100.00,West,277,19.0,26.0,-999,-99.99,,,-99.99,,2013-02-01 12:12:00,
2013-02-01 07:23:00,-999.0,-99.9,-100.00,WNW,292,22.0,27.0,-999,-99.99,,,-99.99,,2013-02-01 12:23:00,
2013-02-01 07:32:00,31.0,-99.9,29.83,WNW,288,18.0,27.0,-999,-99.99,,,-99.99,,2013-02-01 12:32:00,
2013-02-01 07:42:00,-999.0,-99.9,-100.00,WNW,289,18.0,24.0,-999,-99.99,,,-99.99,,2013-02-01 12:42:00,
2013-02-01 07:52:00,-999.0,-99.9,-100.00,WNW,295,16.0,21.0,-999,-99.99,,,-99.99,,2013-02-01 12:52:00,
2013-02-01 08:02:00,30.0,-99.9,29.84,NW,304,15.0,21.0,-999,-99.99,,,-99.99,,2013-02-01 13:02:00,
2013-02-01 08:12:00,-999.0,-99.9,-100.00,WNW,294,19.0,27.0,-999,-99.99,,,-99.99,,2013-02-01 13:12:00,
2013-02-01 08:22:00,-999.0,-99.9,-100.00,NW,305,18.0,23.0,-999,-99.99,,,-99.99,,2013-02-01 13:22:00,
2013-02-01 08:33:00,30.0,-99.9,29.84,NW,317,17.0,23.0,-999,-99.99,,,-99.99,,2013-02-01 13:33:00,
2013-02-01 08:43:00,-999.0,-99.9,-100.00,NW,320,15.0,21.0,-999,-99.99,,,-99.99,,2013-02-01 13:43:00,
2013-02-01 08:53:00,-999.0,-99.9,-100.00,WNW,301,15.0,18.0,-999,-99.99,,,-99.99,,2013-02-01 13:53:00,
2013-02-01 09:03:00,29.0,-99.9,29.84,WNW,295,15.0,19.0,-999,-99.99,,,-99.99,,2013-02-01 14:03:00,
2013-02-01 09:12:00,-999.0,-99.9,-100.00,WNW,302,15.0,20.0,-999,-99.99,,,-99.99,,2013-02-01 14:12:00,
2013-02-01 09:22:00,-999.0,-99.9,-100.00,NW,322,16.0,19.0,-999,-99.99,,,-99.99,,2013-02-01 14:22:00,
2013-02-01 09:33:00,-999.0,-99.9,-100.00,NNW,340,16.0,21.0,-999,-99.99,,,-99.99,,2013-02-01 14:33:00,
2013-02-01 09:43:00,-999.0,-99.9,-100.00,NNW,332,18.0,25.0,-999,-99.99,,,-99.99,,2013-02-01 14:43:00,
2013-02-01 09:53:00,-999.0,-99.9,-100.00,NNW,337,15.0,20.0,-999,-99.99,,,-99.99,,2013-02-01 14:53:00,
2013-02-01 10:03:00,29.0,-99.9,29.85,NW,323,18.0,20.0,-999,-99.99,,,-99.99,,2013-02-01 15:03:00,
2013-02-01 10:12:00,-999.0,-99.9,-100.00,NNW,328,15.0,22.0,-999,-99.99,,,-99.99,,2013-02-01 15:12:00,
2013-02-01 10:22:00,-999.0,-99.9,-100.00,NNW,342,17.0,21.0,-999,-99.99,,,-99.99,,2013-02-01 15:22:00,
2013-02-01 10:33:00,29.0,-99.9,29.86,North,356,19.0,25.0,-999,-99.99,,,-99.99,,2013-02-01 15:33:00,
2013-02-01 10:42:00,-999.0,-99.9,-100.00,NNW,337,16.0,22.0,-999,-99.99,,,-99.99,,2013-02-01 15:42:00,
2013-02-01 10:52:00,-999.0,-99.9,-100.00,North,359,17.0,23.0,-999,-99.99,,,-99.99,,2013-02-01 15:52:00,
2013-02-01 11:03:00,-999.0,-99.9,-100.00,North,352,18.0,21.0,-999,-99.99,,,-99.99,,2013-02-01 16:03:00,
2013-02-01 11:12:00,-999.0,-99.9,-100.00,North,349,14.0,19.0,-999,-99.99,,,-99.99,,2013-02-01 16:12:00,
2013-02-01 11:22:00,-999.0,-99.9,-100.00,NNW,340,14.0,22.0,-999,-99.99,,,-99.99,,2013-02-01 16:22:00,
2013-02-01 11:33:00,29.0,-99.9,29.86,North,350,14.0,20.0,-999,-99.99,,,-99.99,,2013-02-01 16:33:00,
2013-02-01 11:43:00,-999.0,-99.9,-100.00,North,4,20.0,25.0,-999,-99.99,,,-99.99,,2013-02-01 16:43:00,
2013-02-01 11:53:00,-999.0,-99.9,-100.00,North,349,19.0,26.0,-999,-99.99,,,-99.99,,2013-02-01 16:53:00,
2013-02-01 12:03:00,30.0,-99.9,29.85,North,9,19.0,25.0,-999,-99.99,,,-99.99,,2013-02-01 17:03:00,
2013-02-01 12:12:00,-999.0,-99.9,-100.00,NNW,335,18.0,23.0,-999,-99.99,,,-99.99,,2013-02-01 17:12:00,
2013-02-01 12:22:00,-999.0,-99.9,-100.00,NNW,342,18.0,24.0,-999,-99.99,,,-99.99,,2013-02-01 17:22:00,
2013-02-01 12:32:00,-999.0,-99.9,-100.00,NNW,345,22.0,28.0,-999,-99.99,,,-99.99,,2013-02-01 17:32:00,
2013-02-01 12:42:00,-999.0,-99.9,-100.00,NNW,335,17.0,26.0,-999,-99.99,,,-99.99,,2013-02-01 17:42:00,
2013-02-01 12:53:00,-999.0,-99.9,-100.00,North,352,22.0,33.0,-999,-99.99,,,-99.99,,2013-02-01 17:53:00,
2013-02-01 13:03:00,30.0,-99.9,29.85,NNW,342,22.0,32.0,-999,-99.99,,,-99.99,,2013-02-01 18:03:00,
2013-02-01 13:13:00,-999.0,-99.9,-100.00,NNW,329,21.0,26.0,-999,-99.99,,,-99.99,,2013-02-01 18:13:00,
2013-02-01 13:23:00,-999.0,-99.9,-100.00,North,-999,19.0,26.0,-999,-99.99,,,-99.99,,2013-02-01 18:23:00,
2013-02-01 13:33:00,30.0,-99.9,29.85,North,350,21.0,29.0,-999,-99.99,,,-99.99,,2013-02-01 18:33:00,
2013-02-01 13:42:00,-999.0,-99.9,-100.00,NNW,338,20.0,29.0,-999,-99.99,,,-99.99,,2013-02-01 18:42:00,
2013-02-01 13:53:00,-999.0,-99.9,-100.00,NNW,340,20.0,26.0,-999,-99.99,,,-99.99,,2013-02-01 18:53:00,
2013-02-01 14:03:00,31.0,-99.9,29.87,NNW,336,26.0,30.0,-999,-99.99,,,-99.99,,2013-02-01 19:03:00,
2013-02-01 14:12:00,-999.0,-99.9,-100.00,NNW,327,23.0,30.0,-999,-99.99,,,-99.99,,2013-02-01 19:12:00,
2013-02-01 14:22:00,-999.0,-99.9,-100.00,NNW,333,21.0,27.0,-999,-99.99,,,-99.99,,2013-02-01 19:22:00,
2013-02-01 14:33:00,30.0,-99.9,29.88,NNW,334,21.0,30.0,-999,-99.99,,,-99.99,,2013-02-01 19:33:00,
2013-02-01 14:42:00,-999.0,-99.9,-100.00,NNW,335,19.0,26.0,-999,-99.99,,,-99.99,,2013-02-01 19:42:00,
2013-02-01 14:52:00,-999.0,-99.9,-100.00,NNW,332,19.0,27.0,-999,-99.99,,,-99.99,,2013-02-01 19:52:00,
2013-02-01 15:02:00,30.0,-99.9,29.90,NW,326,22.0,30.0,-999,-99.99,,,-99.99,,2013-02-01 20:02:00,
2013-02-01 15:12:00,-999.0,-99.9,-100.00,NW,325,23.0,30.0,-999,-99.99,,,-99.99,,2013-02-01 20:12:00,
2013-02-01 15:22:00,-999.0,-99.9,-100.00,NNW,330,21.0,30.0,-999,-99.99,,,-99.99,,2013-02-01 20:22:00,
2013-02-01 15:32:00,30.0,-99.9,29.92,NNW,344,22.0,29.0,-999,-99.99,,,-99.99,,2013-02-01 20:32:00,
2013-02-01 15:42:00,-999.0,-99.9,-100.00,NNW,332,16.0,22.0,-999,-99.99,,,-99.99,,2013-02-01 20:42:00,
2013-02-01 15:52:00,-999.0,-99.9,-100.00,North,359,27.0,32.0,-999,-99.99,,,-99.99,,2013-02-01 20:52:00,
2013-02-01 16:02:00,30.0,-99.9,29.93,NNW,344,24.0,32.0,-999,-99.99,,,-99.99,,2013-02-01 21:02:00,
2013-02-01 16:12:00,-999.0,-99.9,-100.00,North,355,24.0,31.0,-999,-99.99,,,-99.99,,2013-02-01 21:12:00,
2013-02-01 16:22:00,-999.0,-99.9,-100.00,NNW,331,21.0,28.0,-999,-99.99,,,-99.99,,2013-02-01 21:22:00,
2013-02-01 16:32:00,29.0,-99.9,29.96,NNW,343,22.0,29.0,-999,-99.99,,,-99.99,,2013-02-01 21:32:00,
2013-02-01 16:42:00,-999.0,-99.9,-100.00,NNW,336,20.0,26.0,-999,-99.99,,,-99.99,,2013-02-01 21:42:00,
2013-02-01 16:53:00,-999.0,-99.9,-100.00,NNW,332,19.0,26.0,-999,-99.99,,,-99.99,,2013-02-01 21:53:00,
2013-02-01 17:03:00,29.0,-99.9,29.98,NNW,336,21.0,26.0,-999,-99.99,,,-99.99,,2013-02-01 22:03:00,
2013-02-01 17:11:00,-999.0,-99.9,-100.00,NW,326,20.0,28.0,-999,-99.99,,,-99.99,,2013-02-01 22:11:00,
2013-02-01 17:22:00,-999.0,-99.9,-100.00,NNW,330,15.0,22.0,-999,-99.99,,,-99.99,,2013-02-01 22:22:00,
2013-02-01 17:32:00,-999.0,-99.9,-100.00,NNW,331,22.0,25.0,-999,-99.99,,,-99.99,,2013-02-01 22:32:00,
2013-02-01 17:42:00,-999.0,-99.9,-100.00,NNW,330,17.0,23.0,-999,-99.99,,,-99.99,,2013-02-01 22:42:00,
2013-02-01 17:52:00,-999.0,-99.9,-100.00,NW,318,20.0,25.0,-999,-99.99,,,-99.99,,2013-02-01 22:52:00,
2013-02-01 18:02:00,29.0,-99.9,30.02,NW,319,21.0,25.0,-999,-99.99,,,-99.99,,2013-02-01 23:02:00,
2013-02-01 18:11:00,-999.0,-99.9,-100.00,NNW,343,17.0,23.0,-999,-99.99,,,-99.99,,2013-02-01 23:11:00,
2013-02-01 18:22:00,-999.0,-99.9,-100.00,NNW,347,23.0,30.0,-999,-99.99,,,-99.99,,2013-02-01 23:22:00,
2013-02-01 18:32:00,-999.0,-99.9,-100.00,NW,324,21.0,27.0,-999,-99.99,,,-99.99,,2013-02-01 23:32:00,
2013-02-01 18:42:00,-999.0,-99.9,-100.00,NNW,336,16.0,22.0,-999,-99.99,,,-99.99,,2013-02-01 23:42:00,
2013-02-01 18:52:00,-999.0,-99.9,-100.00,NW,325,18.0,23.0,-999,-99.99,,,-99.99,,2013-02-01 23:52:00,
2013-02-01 19:02:00,28.0,-99.9,30.07,NW,320,18.0,22.0,-999,-99.99,,,-99.99,,2013-02-02 00:02:00,
2013-02-01 19:11:00,-999.0,-99.9,-100.00,NW,316,18.0,22.0,-999,-99.99,,,-99.99,,2013-02-02 00:11:00,
2013-02-01 19:22:00,-999.0,-99.9,-100.00,NW,324,15.0,25.0,-999,-99.99,,,-99.99,,2013-02-02 00:22:00,
2013-02-01 19:32:00,28.0,-99.9,30.09,NW,314,20.0,24.0,-999,-99.99,,,-99.99,,2013-02-02 00:32:00,
2013-02-01 19:42:00,-999.0,-99.9,-100.00,NW,322,18.0,23.0,-999,-99.99,,,-99.99,,2013-02-02 00:42:00,
2013-02-01 19:52:00,-999.0,-99.9,-100.00,NW,325,19.0,24.0,-999,-99.99,,,-99.99,,2013-02-02 00:52:00,
2013-02-01 20:03:00,28.0,-99.9,30.11,NW,316,16.0,23.0,-999,-99.99,,,-99.99,,2013-02-02 01:03:00,
2013-02-01 20:11:00,-999.0,-99.9,-100.00,NW,319,16.0,22.0,-999,-99.99,,,-99.99,,2013-02-02 01:11:00,
2013-02-01 20:22:00,-999.0,-99.9,-100.00,NW,322,15.0,23.0,-999,-99.99,,,-99.99,,2013-02-02 01:22:00,
2013-02-01 20:32:00,28.0,-99.9,30.12,NW,318,18.0,23.0,-999,-99.99,,,-99.99,,2013-02-02 01:32:00,
2013-02-01 20:42:00,-999.0,-99.9,-100.00,NW,324,19.0,24.0,-999,-99.99,,,-99.99,,2013-02-02 01:42:00,
2013-02-01 20:52:00,-999.0,-99.9,-100.00,NW,316,16.0,20.0,-999,-99.99,,,-99.99,,2013-02-02 01:52:00,
2013-02-01 21:01:00,27.0,-99.9,30.14,NW,314,17.0,20.0,-999,-99.99,,,-99.99,,2013-02-02 02:01:00,
2013-02-01 21:11:00,-999.0,-99.9,-100.00,NW,319,17.0,23.0,-999,-99.99,,,-99.99,,2013-02-02 02:11:00,
2013-02-01 21:22:00,-999.0,-99.9,-100.00,NW,323,18.0,24.0,-999,-99.99,,,-99.99,,2013-02-02 02:22:00,
2013-02-01 21:32:00,27.0,-99.9,30.15,NW,315,15.0,22.0,-999,-99.99,,,-99.99,,2013-02-02 02:32:00,
2013-02-01 21:42:00,-999.0,-99.9,-100.00,NW,306,16.0,19.0,-999,-99.99,,,-99.99,,2013-02-02 02:42:00,
2013-02-01 21:52:00,-999.0,-99.9,-100.00,NW,316,15.0,21.0,-999,-99.99,,,-99.99,,2013-02-02 02:52:00,
2013-02-01 22:02:00,26.0,-99.9,30.16,NW,322,16.0,19.0,-999,-99.99,,,-99.99,,2013-02-02 03:02:00,
2013-02-01 22:12:00,-999.0,-99.9,-100.00,NW,323,13.0,19.0,-999,-99.99,,,-99.99,,2013-02-02 03:12:00,
2013-02-01 22:22:00,-999.0,-99.9,-100.00,NNW,332,13.0,21.0,-999,-99.99,,,-99.99,,2013-02-02 03:22:00,
2013-02-01 22:32:00,-999.0,-99.9,-100.00,NW,325,15.0,20.0,-999,-99.99,,,-99.99,,2013-02-02 03:32:00,
2013-02-01 22:42:00,-999.0,-99.9,-100.00,NW,324,15.0,17.0,-999,-99.99,,,-99.99,,2013-02-02 03:42:00,
2013-02-01 22:52:00,-999.0,-99.9,-100.00,WNW,289,15.0,21.0,-999,-99.99,,,-99.99,,2013-02-02 03:52:00,
2013-02-01 23:02:00,26.0,-99.9,30.18,WNW,297,14.0,17.0,-999,-99.99,,,-99.99,,2013-02-02 04:02:00,
2013-02-01 23:11:00,-999.0,-99.9,-100.00,WNW,303,16.0,21.0,-999,-99.99,,,-99.99,,2013-02-02 04:11:00,
2013-02-01 23:22:00,-999.0,-99.9,-100.00,NW,312,15.0,21.0,-999,-99.99,,,-99.99,,2013-02-02 04:22:00,
2013-02-01 23:33:00,26.0,-99.9,30.19,WNW,302,15.0,19.0,-999,-99.99,,,-99.99,,2013-02-02 04:33:00,
2013-02-01 23:42:00,-999.0,-99.9,-100.00,WNW,302,13.0,17.0,-999,-99.99,,,-99.99,,2013-02-02 04:42:00,
2013-02-01 23:52:00,-999.0,-99.9,-100.00,WNW,303,13.0,18.0,-999,-99.99,,,-99.99,,2013-02-02 04:52:00,